Location: Newark
(45.2500°N, 7.7167°E)
Time: 11:00:23
(UTC+00:00)

ISS - Pass Details

Date: 26 October 2019
Orbit: 412 x 421 km, 51.6° (Epoch: 12 November)

Event Time Altitude Azimuth Distance (km) Brightness Sun altitude
Exits shadow 04:42:11 10° 213° (SSW) 1,518 -1.2 -14.1°
Reaches altitude 10° 04:42:14 10° 213° (SSW) 1,500 -1.2 -14.1°
Maximum altitude 04:45:25 40° 143° (SE) 634 -2.5 -13.6°
Drops below altitude 10° 04:48:37 10° 72° (ENE) 1,506 0.2 -13.0°
Sets 04:50:47 0° 64° (ENE) 2,372 1.2 -12.6°
